IW2NCH-3 Weather Reports


Display with metric or nautical units.
time (UTC)temp
F
wind
direction
speed
MPH
gust
MPH
rain 1hr
in
rain 24hr
in
rain mn
in
humidity
%
barometer
mb
20200410102008 74 298 4.0 8.0 0.00 0.02 0.00 23 1008.3
20200410101004 73 287 5.0 8.0 0.00 0.02 0.00 21 1008.2
20200410100004 73 224 5.0 8.0 0.00 0.02 0.00 23 1008.3
20200410095004 74 13 4.0 6.0 0.00 0.02 0.00 23 1008.4
20200410094005 74 330 4.0 7.0 0.00 0.02 0.00 23 1008.6
20200410093004 73 358 4.0 6.0 0.00 0.02 0.00 22 1008.4
20200410092005 74 93 3.0 4.0 0.00 0.02 0.00 23 1008.4
20200410091004 73 357 3.0 5.0 0.00 0.02 0.00 23 1008.5
20200410090004 74 315 3.0 4.0 0.00 0.02 0.00 23 1008.4
20200410085004 72 116 2.0 4.0 0.00 0.02 0.00 22 1008.6
20200410084004 72 22 3.0 4.0 0.00 0.02 0.00 22 1008.7
20200410083004 73 292 2.0 3.0 0.00 0.02 0.00 24 1008.7
20200410082003 74 309 3.0 4.0 0.00 0.02 0.00 23 1008.5
20200410081003 74 312 1.0 2.0 0.00 0.02 0.00 27 1008.5
20200410080003 71 266 2.0 3.0 0.00 0.02 0.00 29 1008.4
20200410075004 71 263 2.0 4.0 0.00 0.02 0.00 29 1008.4
20200410074004 70 259 2.0 4.0 0.00 0.02 0.00 31 1008.4
20200410073004 68 225 3.0 4.0 0.00 0.02 0.00 33 1008.5
20200410072003 66 239 3.0 4.0 0.00 0.02 0.00 36 1008.5
20200410071003 65 235 3.0 4.0 0.00 0.02 0.00 37 1008.5
20200410070009 63 260 4.0 5.0 0.00 0.02 0.00 40 1008.5
20200410065003 61 231 4.0 6.0 0.00 0.02 0.00 41 1008.2
20200410064004 61 236 4.0 6.0 0.00 0.02 0.00 42 1008.4
20200410063004 60 222 3.0 4.0 0.00 0.02 0.00 43 1008.4
20200410062004 60 230 3.0 4.0 0.00 0.02 0.00 44 1008.4
20200410061004 59 219 2.0 4.0 0.00 0.02 0.00 46 1008.2
20200410060004 57 195 3.0 4.0 0.00 0.02 0.00 48 1008.2
20200410055003 56 225 3.0 4.0 0.00 0.02 0.00 50 1008.2
20200410054003 55 216 2.0 4.0 0.00 0.02 0.00 52 1008.2
20200410053008 53 221 3.0 4.0 0.00 0.02 0.00 55 1008.1
20200410052006 52 205 3.0 4.0 0.00 0.02 0.00 60 1008.0
20200410051004 50 218 2.0 3.0 0.00 0.02 0.00 61 1007.8
20200410050004 49 213 2.0 3.0 0.00 0.02 0.00 61 1007.7
20200410045003 50 210 2.0 4.0 0.00 0.02 0.00 61 1007.6
20200410044007 50 218 3.0 4.0 0.00 0.02 0.00 60 1007.6
20200410043006 50 210 2.0 2.0 0.00 0.02 0.00 61 1007.8
20200410042004 49 228 2.0 3.0 0.00 0.02 0.00 62 1007.6
20200410041004 49 240 1.0 2.0 0.00 0.02 0.00 62 1007.5
20200410040003 49 190 2.0 2.0 0.00 0.02 0.00 62 1007.6
20200410035003 49 179 2.0 2.0 0.00 0.02 0.00 62 1007.7
20200410034003 49 218 0.0 2.0 0.00 0.02 0.00 61 1007.7
20200410033004 49 215 1.0 3.0 0.00 0.02 0.00 61 1007.4
20200410032004 50 150 2.0 3.0 0.00 0.02 0.00 61 1007.6
20200410031004 49 165 0.0 2.0 0.00 0.02 0.00 59 1007.6
20200410030004 50 227 1.0 2.0 0.00 0.02 0.00 58 1007.2
20200410025004 50 233 1.0 2.0 0.00 0.02 0.00 56 1007.4
20200410024003 51 229 2.0 3.0 0.00 0.02 0.00 55 1007.3
20200410023003 51 201 3.0 4.0 0.00 0.02 0.00 55 1007.2
20200410022004 51 230 2.0 3.0 0.00 0.02 0.00 55 1007.5
20200410021004 51 229 2.0 3.0 0.00 0.02 0.00 56 1007.3
20200410020005 51 196 3.0 3.0 0.00 0.02 0.00 56 1007.2
20200410015004 51 168 4.0 5.0 0.00 0.02 0.00 55 1007.3
20200410014003 52 190 3.0 4.0 0.00 0.02 0.00 55 1007.3
20200410013004 52 217 4.0 7.0 0.00 0.02 0.00 53 1007.4
20200410012003 52 232 3.0 4.0 0.00 0.02 0.00 53 1007.3
20200410011004 52 236 3.0 4.0 0.00 0.02 0.00 51 1007.2
20200410010004 52 232 2.0 3.0 0.00 0.02 0.00 51 1007.2
20200410005004 51 236 2.0 2.0 0.00 0.02 0.00 53 1007.4
20200410004003 51 216 2.0 3.0 0.00 0.02 0.00 54 1007.6
20200410003004 51 199 1.0 2.0 0.00 0.02 0.00 54 1007.5
20200410002007 51 319 1.0 2.0 0.00 0.02 0.00 54 1007.3
20200410001004 52 269 1.0 2.0 0.00 0.02 0.00 52 1007.4
20200410000004 52 192 2.0 3.0 0.00 0.02 0.00 50 1007.3
20200409235004 53 229 1.0 2.0 0.00 0.02 0.00 49 1007.2
20200409234004 53 211 2.0 3.0 0.00 0.02 0.00 49 1007.4
20200409233003 53 185 2.0 3.0 0.00 0.02 0.00 49 1007.7
20200409232003 53 179 2.0 2.0 0.00 0.02 0.00 49 1007.3
20200409231004 54 223 1.0 3.0 0.00 0.02 0.00 47 1007.4
20200409230003 54 235 2.0 3.0 0.00 0.02 0.00 47 1007.2
20200409225003 53 227 2.0 2.0 0.00 0.02 0.00 49 1007.4
20200409224004 53 228 1.0 2.0 0.00 0.02 0.00 49 1007.3
20200409223005 54 181 2.0 3.0 0.00 0.02 0.00 46 1007.3
20200409222004 54 194 2.0 3.0 0.00 0.02 0.00 44 1007.1
20200409221003 55 171 3.0 4.0 0.00 0.02 0.00 43 1007.3
20200409220004 55 212 2.0 3.0 0.00 0.02 0.00 43 1007.3
20200409215004 55 221 2.0 2.0 0.00 0.02 0.02 43 1007.3
20200409214004 56 227 2.0 4.0 0.00 0.02 0.02 43 1007.2
20200409213004 56 224 2.0 2.0 0.00 0.02 0.02 44 1007.3
20200409212004 55 202 1.0 2.0 0.00 0.02 0.02 45 1007.2
20200409211004 56 193 1.0 2.0 0.00 0.02 0.02 44 1007.2
20200409210003 56 206 1.0 2.0 0.00 0.02 0.02 44 1007.3
20200409205003 57 187 2.0 2.0 0.00 0.02 0.02 43 1007.2
20200409204003 57 205 2.0 2.0 0.00 0.02 0.02 41 1007.1
20200409203004 57 198 1.0 2.0 0.00 0.02 0.02 40 1007.0
20200409202004 58 209 1.0 2.0 0.00 0.02 0.02 39 1007.0
20200409201005 58 225 1.0 1.0 0.00 0.02 0.02 39 1006.8
20200409200004 58 225 1.0 2.0 0.00 0.02 0.02 38 1007.0
20200409195005 58 211 1.0 2.0 0.00 0.02 0.02 37 1006.8
20200409194003 59 225 0.0 2.0 0.00 0.02 0.02 35 1006.9
20200409193003 60 225 1.0 2.0 0.00 0.02 0.02 33 1006.7
20200409192004 60 225 1.0 2.0 0.00 0.02 0.02 33 1006.6
20200409191004 61 0 0.0 0.0 0.00 0.02 0.02 30 1006.7
20200409190004 62 0 0.0 0.0 0.00 0.02 0.02 28 1006.5
20200409185004 62 0 0.0 0.0 0.00 0.02 0.02 29 1006.4
20200409184004 61 0 0.0 0.0 0.00 0.02 0.02 29 1006.4
20200409183003 63 0 0.0 0.0 0.00 0.02 0.02 26 1006.2
20200409182003 64 0 0.0 0.0 0.00 0.02 0.02 25 1005.9
20200409181004 66 90 0.0 1.0 0.00 0.02 0.02 23 1006.0
20200409180004 68 87 1.0 2.0 0.00 0.02 0.02 21 1005.7
20200409175006 69 74 1.0 2.0 0.02 0.02 0.02 20 1005.6
20200409174003 70 353 2.0 3.0 0.02 0.02 0.02 19 1005.6
20200409173003 72 323 3.0 4.0 0.02 0.02 0.02 18 1005.8
20200409172003 73 323 3.0 5.0 0.02 0.02 0.02 18 1005.5
20200409171004 73 343 4.0 5.0 0.02 0.02 0.02 17 1005.6
20200409170004 74 328 5.0 6.0 0.02 0.02 0.02 19 1005.5
20200409165004 74 354 4.0 6.0 0.00 0.00 0.00 21 1005.4
20200409164003 74 332 6.0 8.0 0.00 0.00 0.00 19 1005.5
20200409163004 74 283 5.0 6.0 0.00 0.00 0.00 18 1005.3
20200409162004 74 323 6.0 9.0 0.00 0.00 0.00 20 1005.3
20200409161004 74 343 5.0 6.0 0.00 0.00 0.00 20 1005.4
20200409160004 74 314 6.0 8.0 0.00 0.00 0.00 21 1005.3
20200409155003 75 307 7.0 8.0 0.00 0.00 0.00 19 1005.4
20200409154003 75 333 6.0 9.0 0.00 0.00 0.00 18 1005.5
20200409153005 76 317 6.0 12.0 0.00 0.00 0.00 16 1005.4
20200409152004 75 17 6.0 11.0 0.00 0.00 0.00 19 1005.5
20200409151004 76 319 6.0 8.0 0.00 0.00 0.00 19 1005.5
20200409150004 75 329 7.0 9.0 0.00 0.00 0.00 21 1005.4
20200409145003 75 296 6.0 8.0 0.00 0.00 0.00 19 1005.5
20200409144004 76 29 6.0 9.0 0.00 0.00 0.00 18 1005.6
20200409143004 75 284 6.0 9.0 0.00 0.00 0.00 17 1005.8
20200409142003 76 299 6.0 10.0 0.00 0.00 0.00 18 1005.8
20200409141004 75 342 5.0 7.0 0.00 0.00 0.00 17 1005.8
20200409140004 76 3 5.0 8.0 0.00 0.00 0.00 19 1006.1
20200409135004 75 306 7.0 12.0 0.00 0.00 0.00 21 1006.1
20200409134004 75 250 6.0 8.0 0.00 0.00 0.00 20 1006.1
20200409133004 74 300 8.0 11.0 0.00 0.00 0.00 20 1006.1
20200409132004 74 292 7.0 10.0 0.00 0.00 0.00 22 1006.2
20200409131004 74 286 7.0 9.0 0.00 0.00 0.00 21 1006.4
20200409130004 74 285 8.0 11.0 0.00 0.00 0.00 21 1006.4
20200409125004 74 296 9.0 11.0 0.00 0.00 0.00 21 1006.5
20200409124006 76 266 5.0 10.0 0.00 0.00 0.00 18 1006.6
20200409123004 75 193 5.0 7.0 0.00 0.00 0.00 18 1006.8
20200409122004 74 353 6.0 11.0 0.00 0.00 0.00 19 1006.8
20200409121004 74 87 8.0 9.0 0.00 0.00 0.00 20 1007.0
20200409120026 74 24 6.0 8.0 0.00 0.00 0.00 20 1007.1
20200409115003 74 46 6.0 9.0 0.00 0.00 0.00 20 1007.2
20200409114004 73 90 7.0 10.0 0.00 0.00 0.00 16 1007.1
20200409113016 74 309 5.0 8.0 0.00 0.00 0.00 20 1007.2
20200409112004 74 119 5.0 8.0 0.00 0.00 0.00 18 1007.0
20200409111004 73 122 5.0 8.0 0.00 0.00 0.00 16 1007.3
20200409110004 72 39 7.0 9.0 0.00 0.00 0.00 18 1007.6
20200409105003 72 316 5.0 6.0 0.00 0.00 0.00 17 1007.4
20200409104005 72 269 5.0 8.0 0.00 0.00 0.00 16 1007.5
20200409103005 72 289 5.0 7.0 0.00 0.00 0.00 18 1007.7